Voltar ao catálogo

CBERS 1 DEB

AtivoSSO
NORAD 30789·DEBRIS·🇧🇷 Brazil🇨🇳 China

Lançado Oct 14, 1999 de Taiyuan Satellite Launch Center

Loading…

Próximas Passagens (próximas 24 horas)

TLE

AtualizadoSource: Space-Track

Época: Sep 13, 2026, 09:27 UTC

1 30789U 99057NY  26256.39429550  .00001880  00000-0  40598-3 0  9991
2 30789  98.6226 307.6167 0006396 151.5275 272.8743 14.59577769 29107

Acompanhe CBERS 1 DEB em tempo real com AllMySat

Download on the App Store